Location: *
(48.4333°N, 5.0333°W)
Time: 21:17:27
(UTC+00:00)

Mayak - Pass Details

Date: 09 April 2020
Orbit: 581 x 601 km, 97.5° (Epoch: 25 May)

Event Time Altitude Azimuth Distance (km) Brightness Sun altitude
Rises 23:36:50 0° 3° (N) 2,824 ? -32.7°
Reaches altitude 10° 23:39:15 10° 351° (N) 1,916 ? -32.8°
Enters shadow 23:41:18 21° 326° (NW) 1,322 ? -32.8°
